Regional Weather Roundup
Issued by NWS

Home | Current Version | Previous Version | Graphics & Text | Print | Product List | Glossary On
Versions: 1 2 3 4 5 6 7 8 9 10 11 12 13 14 15 16 17 18 19 20 21 22 23 24 25 26 27 28 29 30 31 32 33 34 35 36 37 38 39 40 41 42 43 44 45 46 47 48 49 50
000
ASUS43 KOAX 022202
RWRNE

WEATHER ROUNDUP FOR NEBRASKA
NATIONAL WEATHER SERVICE OMAHA NE
500 PM CDT SAT MAY 02 2015

NOTES: SATELLITE DATA IS BEING USED TO AUGMENT CLOUD COVER ABOVE
       12000 FEET.
       "FAIR" INDICATES FEW OR NO CLOUDS BELOW 12,000 FEET WITH NO
       SIGNIFICANT WEATHER AND/OR OBSTRUCTIONS TO VISIBILITY.

  * THESE STATIONS DO NOT REPORT WEATHER SUCH AS RAIN...SNOW OR FOG.

NEZ001>004-019>022-054>056-022300-
NEBRASKA PANHANDLE

CITY           SKY/WX    TMP DP  RH WIND       PRES   REMARKS
SCOTTSBLUFF    MOSUNNY   82  33  17 W10       29.78F
ALLIANCE       SUNNY     81  32  17 W17G23    29.77F
CHADRON        SUNNY     82  28  14 NW23G30   29.72F
KIMBALL        CLOUDY    71  43  37 SW14      29.85F
SIDNEY         CLOUDY    72  37  28 W12       29.84F
$$

NEZ057>060-069>072-079>082-022300-
SOUTHWEST NEBRASKA

CITY           SKY/WX    TMP DP  RH WIND       PRES   REMARKS
NORTH PLATTE   MOSUNNY   83  44  25 SW12      29.73F
IMPERIAL       PTSUNNY   85  34  16 NW12      29.78F
MCCOOK         MOSUNNY   88  35  15 S9        29.74F
$$

NEZ005>010-023>029-035>040-094-022300-
NORTH CENTRAL NEBRASKA

CITY           SKY/WX    TMP DP  RH WIND       PRES   REMARKS
AINSWORTH      MOSUNNY   80  47  31 S8        29.72F
BROKEN BOW     MOSUNNY   86  47  25 SW15G23   29.73F
ORD            SUNNY     84  47  27 S14       29.71F
$$

NEZ041-046>049-061>064-073>077-083>087-022300-
SOUTH CENTRAL NEBRASKA

CITY           SKY/WX    TMP DP  RH WIND       PRES   REMARKS
GRAND ISLAND   SUNNY     85  49  28 SW14      29.74F
AURORA         SUNNY     84  47  27 S15G22    29.75F
HASTINGS       SUNNY     85  47  26 S12G24    29.75F
KEARNEY *      SUNNY     84  48  28 S15G24    29.74F
$$

NEZ011>018-030>034-042>045-022300-
NORTHEAST NEBRASKA

CITY           SKY/WX    TMP DP  RH WIND       PRES   REMARKS
NORFOLK        MOSUNNY   85  50  29 S10G22    29.73F
BLAIR          SUNNY     72  55  56 S14G23    29.81F
COLUMBUS *     MOSUNNY   82  54  36 S10       29.76F
FREMONT        SUNNY     77  57  50 SE14G22   29.79F
TEKAMAH        SUNNY     78  56  46 S18       29.79F
$$

NEZ050>053-065>068-078-088>093-022300-
SOUTHEAST NEBRASKA

CITY           SKY/WX    TMP DP  RH WIND       PRES   REMARKS
LINCOLN        MOSUNNY   84  54  35 S21G31    29.77F
OMAHA EPPLEY   MOSUNNY   72  56  57 S21G28    29.82F
FALLS CITY     MOSUNNY   74  56  53 S17G24    29.85F
NEBRASKA CITY  SUNNY     70  56  60 S15       29.84F
PLATTSMOUTH    SUNNY     69  55  60 SE15G23   29.84S
$$

NEZ044-045-051>053-067-022300-
OMAHA AREA

CITY           SKY/WX    TMP DP  RH WIND       PRES   REMARKS
OMAHA EPPLEY   MOSUNNY   72  56  57 S21G28    29.82F
BLAIR          SUNNY     72  55  56 S14G23    29.81F
FREMONT        SUNNY     77  57  50 SE14G22   29.79F
OFFUTT AFB     SUNNY     71  56  59 SE15      29.82F
PLATTSMOUTH    SUNNY     69  55  60 SE15G23   29.84S
WAHOO          FAIR      81  51  34 S17G24    29.78F
$$


USA.gov is the U.S. government's official web portal to all federal, state and local government web resources and services.